Find Badr B

NORAD ID: 27003 Int'l Des: 2001-056 Owner: SUPA Country: PK operational
LEOCIRCULARRETROGRADESSO

实时位置

正在加载3D地球...

关于 Badr B

正在加载描述...

即将过境

Passes for default location (London). Set your location on the main map for personalized predictions.

高度历史

Loading altitude history...

两行轨道根数

1 27003U 01056C 26104.75504359 -.00000016 00000-0 34979-4 0 9999
2 27003 99.8003 279.2224 0019537 300.3909 59.5305 13.70404894217254
Epoch: Apr 14, 2026 • Age: 10 hours

当前状态

高度 1006.7 km
速度 7.35 km/s
星下点 -59.87°S, 28.47°E
发射日期 Dec 10, 2001
运行时间 24.3 years
类型 other

技术详情

分类 Payload
质量 69.00 kg
干质量 69.00 kg
总质量 69.00 kg
长度 0.50 m
直径 0.50 m
跨度 6.50 m
形状 Box + Ant
制造商 SIL
平台类型 microSIL
阶段状态 In Orbit
所有者/国家 SUPA/PK

Most Searched